Showing default

BPA 3/SL-24, 39448

Orbit data source: Space-Track

BPA 3/SL-24, 39448 is a payload satellite owned by Kosmotras (UA) in SSO that was launched on Thu, 21 Nov 2013 UTC launched from the Orenburg, Russia (OREN). Payload-class satellites include a variety of spacecraft equipped with specific instruments for various scientific and technological missions. These include communications satellites like Starlink; space stations such as the ISS; scientific satellites like the Hubble; Earth observation satellites from companies like Planet Labs, Umbra, and HawkEye 360; GPS; miniature CubeSats for education and research; and military/defense satellites.

Loading next visibility...
Identifier
39448, 2013-066AJ
Orbit
SSO
Country
Flag of UAUA / UKR
Related business
Manufacturer
Yuzhnoe
Mission
Non-operational spacecraft
Bus & Motor
15A18-BR, Unknown motor
Mass
~1,000 kg wet, ~1,000 kg dry
Launch date (UTC)
2013-11-21 (12 years ago)
Launch vehicle
Unknown
Launch site
Orenburg, Russia (OREN)
Object type
Payload
Rocket body
Debris
Shape & HBR
Cyl, 1.5 m
Radar Cross Section
10.603 m², Large (>1 m²)

Expand to show TLE details & history
Last TLE update: 10 hours ago

TLE from 10 hours ago
0 BPA 3/SL-24
1 39448U 13066AJ  25300.52320678  .00000139  00000-0  78140-4 0  9994
2 39448  97.6730 155.0030 0676437 274.8980  77.5311 13.43184421584650
Epoch: 2025-10-27T12:33Z
TLE epoch observation values (Epoch: 2025-10-27T12:33:25.065Z)
Latitude
0.00002°
Longitude
-69.47527°
Altitude
1,024.341 km
Speed
7.377 km/s
True Right ascension
10h 20m 00s
True Declination
0° 00' 00"
Sunlit
Object was in daylight at epoch
Visualization orbit readout
Latitude
Unknown
Longitude
Unknown
Altitude
Unknown
Speed
Unknown
Apparent Right ascension
Unknown
Apparent Declination
Unknown
Sunlit
N/A
Visualization observer readout
Local Sidereal Time
18:18:45
Azimuth
Unknown
Elevation
Unknown
Doppler factor
Unknown
Orbital elements
Apogee altitude
1,600.125 km
Perigee altitude
589.152 km
Semi-major axis
7,472.775 km
Eccentricity
0.06764
Inclination
97.673°
RAAN
155.003°
Arg. of periapsis
274.898°
True anomaly
85.21714°
Mean anomaly
77.5311°
Eccentric anomaly
81.36285°
Mean motion
3.35985 °/min
Orbital period
107.15 mins
BSTAR
0.00007814
Loading maneuver chart data...
Computing Atmospheric mass density...
Loading historical data...
Loading historical data...
Loading historical data...
Loading historical data...
Loading historical data...
Loading historical data...
Loading historical data...

Documentation

Showing up to 5 results
|